W5XO-8 Weather Reports


Display with metric or nautical units.
time (UTC)temp
F
wind
direction
speed
MPH
gust
MPH
rain 1hr
in
rain 24hr
in
rain mn
in
humidity
%
barometer
mb
20210729035523 82 130 0.0 0.0 0.00 0.00 0.00 82 1010.4
20210729035041 83 130 0.0 0.0 0.00 0.00 0.00 81 1010.1
20210729034556 83 130 0.0 0.0 0.00 0.00 0.00 80 1010.1
20210729034041 83 130 0.0 0.0 0.00 0.00 0.00 79 1010.1
20210729033554 83 130 0.0 0.0 0.00 0.00 0.00 79 1009.9
20210729033137 84 130 0.0 0.0 0.00 0.00 0.00 78 1009.9
20210729032553 84 130 0.0 0.0 0.00 0.00 0.00 78 1009.9
20210729032055 84 129 0.0 0.0 0.00 0.00 0.00 78 1009.6
20210729031653 84 133 0.0 0.0 0.00 0.00 0.00 78 1009.6
20210729031058 84 133 0.0 0.0 0.00 0.00 0.00 78 1009.6
20210729030103 84 132 0.0 0.0 0.00 0.00 0.00 78 1009.6
20210729025538 84 132 0.0 0.0 0.00 0.00 0.00 78 1009.6
20210729025044 84 132 0.0 0.0 0.00 0.00 0.00 78 1009.6
20210729024607 85 132 0.0 0.0 0.00 0.00 0.00 77 1009.6
20210729024049 85 134 0.0 0.0 0.00 0.00 0.00 77 1009.6
20210729023600 85 134 0.0 0.0 0.00 0.00 0.00 78 1009.4
20210729022502 85 135 0.0 0.0 0.00 0.00 0.00 77 1009.4
20210729022028 85 134 0.0 0.0 0.00 0.00 0.00 76 1009.1
20210729021521 85 135 0.0 0.0 0.00 0.00 0.00 77 1009.1
20210729021016 85 135 0.0 0.0 0.00 0.00 0.00 76 1009.1
20210729020209 85 92 0.0 0.0 0.00 0.00 0.00 76 1009.1
20210729015553 85 92 0.0 0.0 0.00 0.00 0.00 75 1009.1
20210729015104 85 92 0.0 0.0 0.00 0.00 0.00 76 1009.1
20210729014002 86 92 0.0 0.0 0.00 0.00 0.00 75 1009.1
20210729013507 86 92 0.0 0.0 0.00 0.00 0.00 74 1009.0
20210729013100 86 92 0.0 0.0 0.00 0.00 0.00 74 1009.0
20210729012536 87 91 0.0 0.0 0.00 0.00 0.00 73 1009.0
20210729012029 87 91 0.0 0.0 0.00 0.00 0.00 73 1009.0
20210729011604 87 101 0.0 0.0 0.00 0.00 0.00 72 1009.0
20210729011041 88 101 0.0 0.0 0.00 0.00 0.00 71 1009.0
20210729010308 88 76 0.0 0.0 0.00 0.00 0.00 70 1009.1
20210729005504 89 74 0.0 0.0 0.00 0.00 0.00 70 1009.1
20210729005006 89 74 0.0 0.0 0.00 0.00 0.00 69 1009.1
20210729004508 89 82 0.0 0.0 0.00 0.00 0.00 68 1009.1
20210729004016 89 72 0.0 0.0 0.00 0.00 0.00 68 1009.1
20210729003533 90 74 0.0 0.0 0.00 0.00 0.00 68 1009.0
20210729003033 90 71 0.0 0.0 0.00 0.00 0.00 67 1009.0
20210729002537 90 77 0.0 0.0 0.00 0.00 0.00 66 1009.0
20210729002040 90 76 0.0 0.0 0.00 0.00 0.00 66 1009.0
20210729001636 90 82 0.0 0.0 0.00 0.00 0.00 65 1009.0
20210729001051 91 67 0.0 0.0 0.00 0.00 0.00 65 1009.0
20210729000512 91 80 0.0 0.0 0.00 0.00 0.00 63 1009.0
20210729000138 91 66 0.0 0.0 0.00 0.00 0.00 63 1009.0
20210728235534 91 83 0.0 0.0 0.00 0.00 0.00 64 1009.0
20210728235048 91 108 0.0 0.0 0.00 0.00 0.00 65 1009.1
20210728234552 91 88 0.0 0.0 0.00 0.00 0.00 64 1009.1
20210728234037 91 90 0.0 0.0 0.00 0.00 0.00 65 1009.1
20210728233542 91 94 0.0 0.0 0.00 0.00 0.00 65 1009.1
20210728233059 91 91 0.0 0.0 0.00 0.00 0.00 64 1009.1
20210728232550 91 101 0.0 0.0 0.00 0.00 0.00 64 1009.1
20210728232051 91 99 0.0 0.0 0.00 0.00 0.00 65 1009.2
20210728231725 91 96 0.0 0.0 0.00 0.00 0.00 65 1009.2
20210728230055 91 97 0.0 0.0 0.00 0.00 0.00 64 1009.4
20210728225543 91 79 0.0 0.0 0.00 0.00 0.00 66 1009.4
20210728225057 91 103 0.0 0.0 0.00 0.00 0.00 66 1009.4
20210728224709 91 76 0.0 0.0 0.00 0.00 0.00 63 1009.4
20210728224056 91 96 1.0 0.0 0.00 0.00 0.00 63 1009.4
20210728223607 91 106 1.0 0.0 0.00 0.00 0.00 63 1009.4
20210728222507 91 132 0.0 0.0 0.00 0.00 0.00 63 1009.4
20210728222033 92 78 0.0 0.0 0.00 0.00 0.00 63 1009.4
20210728221535 92 76 0.0 0.0 0.00 0.00 0.00 62 1009.4
20210728221027 92 71 0.0 0.0 0.00 0.00 0.00 62 1009.4
20210728220203 92 76 0.0 0.0 0.00 0.00 0.00 63 1009.6
20210728215601 91 93 0.0 0.0 0.00 0.00 0.00 61 1009.6
20210728214506 90 103 0.0 0.0 0.00 0.00 0.00 66 1009.6
20210728214013 90 92 2.0 0.0 0.00 0.00 0.00 66 1009.6
20210728213533 91 63 2.0 0.0 0.00 0.00 0.00 64 1009.7
20210728213032 92 118 0.0 0.0 0.00 0.00 0.00 64 1009.7
20210728212529 92 112 0.0 0.0 0.00 0.00 0.00 63 1009.7
20210728212035 92 88 0.0 0.0 0.00 0.00 0.00 62 1010.0
20210728211614 92 113 0.0 0.0 0.00 0.00 0.00 62 1010.0
20210728211049 92 113 0.0 0.0 0.00 0.00 0.00 62 1010.0
20210728210503 92 123 0.0 0.0 0.00 0.00 0.00 61 1010.1
20210728210008 92 88 0.0 0.0 0.00 0.00 0.00 61 1010.1
20210728205524 92 95 0.0 0.0 0.00 0.00 0.00 62 1010.1
20210728205037 91 103 0.0 0.0 0.00 0.00 0.00 62 1010.1
20210728204610 92 80 0.0 0.0 0.00 0.00 0.00 63 1010.1
20210728204041 92 90 0.0 0.0 0.00 0.00 0.00 63 1010.1
20210728203540 92 71 0.0 0.0 0.00 0.00 0.00 63 1010.5
20210728203220 92 211 0.0 0.0 0.00 0.00 0.00 61 1010.5
20210728202547 92 88 0.0 0.0 0.00 0.00 0.00 60 1010.5
20210728202127 92 74 0.0 0.0 0.00 0.00 0.00 62 1010.6
20210728201801 91 91 0.0 0.0 0.00 0.00 0.00 61 1010.6
20210728200130 91 105 0.0 0.0 0.00 0.00 0.00 61 1010.6
20210728195535 91 92 0.0 0.0 0.00 0.00 0.00 61 1010.6
20210728195039 91 80 0.0 0.0 0.00 0.00 0.00 60 1010.7
20210728194558 91 131 1.0 0.0 0.00 0.00 0.00 61 1010.7
20210728194047 92 115 0.0 0.0 0.00 0.00 0.00 61 1010.7
20210728193547 92 144 0.0 0.0 0.00 0.00 0.00 60 1010.8
20210728193204 92 57 0.0 0.0 0.00 0.00 0.00 60 1010.8
20210728192555 92 190 0.0 0.0 0.00 0.00 0.00 58 1010.8
20210728192100 92 134 0.0 0.0 0.00 0.00 0.00 59 1010.9
20210728191503 91 128 0.0 0.0 0.00 0.00 0.00 58 1010.9
20210728191002 91 103 0.0 0.0 0.00 0.00 0.00 62 1010.9
20210728190132 90 171 0.0 0.0 0.00 0.00 0.00 65 1011.1
20210728185543 90 70 0.0 0.0 0.00 0.00 0.00 64 1011.1
20210728185044 90 70 0.0 0.0 0.00 0.00 0.00 66 1011.2
20210728184554 89 70 0.0 0.0 0.00 0.00 0.00 65 1011.2
20210728184101 89 71 0.0 0.0 0.00 0.00 0.00 65 1011.2
20210728183600 90 61 0.0 0.0 0.00 0.00 0.00 65 1011.6
20210728183217 90 73 0.0 0.0 0.00 0.00 0.00 66 1011.6
20210728182005 90 155 0.0 0.0 0.00 0.00 0.00 67 1011.7
20210728181520 90 157 0.0 0.0 0.00 0.00 0.00 67 1011.7
20210728181016 90 172 0.0 0.0 0.00 0.00 0.00 67 1011.7
20210728180118 90 172 0.0 0.0 0.00 0.00 0.00 67 1011.8
20210728175551 90 170 0.0 0.0 0.00 0.00 0.00 66 1011.8
20210728175059 90 204 0.0 0.0 0.00 0.00 0.00 67 1011.9
20210728174003 89 130 0.0 0.0 0.00 0.00 0.00 67 1011.9
20210728173511 89 80 0.0 0.0 0.00 0.00 0.00 67 1012.1
20210728173038 89 79 0.0 0.0 0.00 0.00 0.00 66 1012.1
20210728172529 89 73 0.0 0.0 0.00 0.00 0.00 68 1012.1
20210728172046 89 72 0.0 0.0 0.00 0.00 0.00 69 1012.2
20210728171613 88 105 0.0 0.0 0.00 0.00 0.00 69 1012.2
20210728171038 88 123 0.0 0.0 0.00 0.00 0.00 69 1012.2
20210728170003 88 135 0.0 0.0 0.00 0.00 0.00 71 1012.2
20210728165510 88 115 0.0 0.0 0.00 0.00 0.00 73 1012.2
20210728165033 87 46 0.0 0.0 0.00 0.00 0.00 71 1012.2
20210728164529 87 90 0.0 0.0 0.00 0.00 0.00 71 1012.2
20210728164027 87 130 0.0 0.0 0.00 0.00 0.00 72 1012.2
20210728163546 87 161 0.0 0.0 0.00 0.00 0.00 74 1012.2
20210728163116 87 168 0.0 0.0 0.00 0.00 0.00 73 1012.2
20210728162547 87 240 0.0 0.0 0.00 0.00 0.00 74 1012.2
20210728162106 86 188 0.0 0.0 0.00 0.00 0.00 73 1012.3
20210728161619 86 228 0.0 0.0 0.00 0.00 0.00 73 1012.3
20210728161053 86 186 0.0 0.0 0.00 0.00 0.00 74 1012.3
20210728160508 86 186 0.0 0.0 0.00 0.00 0.00 75 1012.3
20210728160018 86 198 0.0 0.0 0.00 0.00 0.00 76 1012.3
20210728155526 85 222 0.0 0.0 0.00 0.00 0.00 76 1012.3
20210728155031 85 241 0.0 0.0 0.00 0.00 0.00 76 1012.3
20210728154637 85 270 0.0 0.0 0.00 0.00 0.00 80 1012.3
20210728154046 84 209 0.0 0.0 0.00 0.00 0.00 80 1012.3
20210728153542 84 223 0.0 0.0 0.00 0.00 0.00 80 1012.2
20210728153252 84 262 0.0 0.0 0.00 0.00 0.00 81 1012.2
20210728152550 84 280 0.0 0.0 0.00 0.00 0.00 81 1012.2
20210728152058 83 246 0.0 0.0 0.00 0.00 0.00 82 1012.3
20210728151700 83 259 0.0 0.0 0.00 0.00 0.00 82 1012.3
20210728151056 83 238 0.0 0.0 0.00 0.00 0.00 82 1012.3
20210728150033 83 249 0.0 0.0 0.00 0.00 0.00 83 1012.3
20210728145539 83 242 0.0 0.0 0.00 0.00 0.00 83 1012.3
20210728145136 82 254 0.0 0.0 0.00 0.00 0.00 84 1012.4
20210728144615 82 202 0.0 0.0 0.00 0.00 0.00 84 1012.4
20210728144113 82 232 0.0 0.0 0.00 0.00 0.00 85 1012.4
20210728143544 81 228 0.0 0.0 0.00 0.00 0.00 86 1012.3
20210728143244 81 225 0.0 0.0 0.00 0.00 0.00 87 1012.3
20210728142552 81 228 0.0 0.0 0.00 0.00 0.00 88 1012.3
20210728142054 80 241 0.0 0.0 0.00 0.00 0.00 89 1012.3
20210728141700 80 241 0.0 0.0 0.00 0.00 0.00 89 1012.3
20210728140050 78 229 0.0 0.0 0.00 0.00 0.00 91 1012.3
20210728135538 78 185 0.0 0.0 0.00 0.00 0.00 92 1012.3
20210728135041 78 183 0.0 0.0 0.00 0.00 0.00 92 1012.3
20210728134648 77 182 0.0 0.0 0.00 0.00 0.00 92 1012.3
20210728134048 77 182 0.0 0.0 0.00 0.00 0.00 92 1012.3
20210728133552 77 171 0.0 0.0 0.00 0.00 0.00 92 1012.2
20210728133159 77 163 0.0 0.0 0.00 0.00 0.00 93 1012.2
20210728132609 76 146 0.0 0.0 0.00 0.00 0.00 93 1012.2
20210728132003 76 142 0.0 0.0 0.00 0.00 0.00 93 1011.9
20210728131508 76 49 0.0 0.0 0.00 0.00 0.00 94 1011.9
20210728131026 76 49 0.0 0.0 0.00 0.00 0.00 93 1011.9
20210728130145 75 49 0.0 0.0 0.00 0.00 0.00 93 1011.8
20210728125532 75 49 0.0 0.0 0.00 0.00 0.00 93 1011.8
20210728125037 75 49 0.0 0.0 0.00 0.00 0.00 93 1011.8
20210728124638 75 49 0.0 0.0 0.00 0.00 0.00 92 1011.8
20210728124044 75 49 0.0 0.0 0.00 0.00 0.00 92 1011.8
20210728123603 75 49 0.0 0.0 0.00 0.00 0.00 92 1011.7
20210728123138 75 49 0.0 0.0 0.00 0.00 0.00 92 1011.7
20210728122606 75 49 0.0 0.0 0.00 0.00 0.00 92 1011.7
20210728121502 75 49 0.0 0.0 0.00 0.00 0.00 91 1011.6
20210728121004 75 49 0.0 0.0 0.00 0.00 0.00 92 1011.6
20210728120106 74 49 0.0 0.0 0.00 0.00 0.00 92 1011.2
20210728115610 74 49 0.0 0.0 0.00 0.00 0.00 92 1011.2
20210728115105 74 49 0.0 0.0 0.00 0.00 0.00 92 1011.2
20210728114636 74 43 0.0 0.0 0.00 0.00 0.00 91 1011.2
20210728114106 74 43 0.0 0.0 0.00 0.00 0.00 92 1011.2
20210728113559 74 43 0.0 0.0 0.00 0.00 0.00 91 1010.9
20210728112502 74 43 0.0 0.0 0.00 0.00 0.00 91 1010.9
20210728112014 75 43 0.0 0.0 0.00 0.00 0.00 91 1010.9
20210728111617 75 43 0.0 0.0 0.00 0.00 0.00 91 1010.9
20210728111020 75 43 0.0 0.0 0.00 0.00 0.00 90 1010.9
20210728110151 75 43 0.0 0.0 0.00 0.00 0.00 90 1010.8
20210728105546 75 43 0.0 0.0 0.00 0.00 0.00 90 1010.8
20210728105052 75 43 0.0 0.0 0.00 0.00 0.00 90 1010.8
20210728104618 75 43 0.0 0.0 0.00 0.00 0.00 90 1010.8
20210728104135 75 43 0.0 0.0 0.00 0.00 0.00 90 1010.8
20210728103037 75 43 0.0 0.0 0.00 0.00 0.00 89 1010.9
20210728102515 75 43 0.0 0.0 0.00 0.00 0.00 89 1010.9
20210728102024 75 43 0.0 0.0 0.00 0.00 0.00 89 1010.8
20210728101555 75 43 0.0 0.0 0.00 0.00 0.00 89 1010.8
20210728101032 75 43 0.0 0.0 0.00 0.00 0.00 89 1010.8
20210728100149 75 43 0.0 0.0 0.00 0.00 0.00 88 1010.8
20210728095558 76 43 0.0 0.0 0.00 0.00 0.00 88 1010.8
20210728094537 76 43 0.0 0.0 0.00 0.00 0.00 87 1010.7
20210728094006 76 43 0.0 0.0 0.00 0.00 0.00 87 1010.7
20210728093515 76 43 0.0 0.0 0.00 0.00 0.00 86 1010.6
20210728093044 76 43 0.0 0.0 0.00 0.00 0.00 86 1010.6
20210728092522 77 55 0.0 0.0 0.00 0.00 0.00 85 1010.6
20210728092028 77 137 0.0 0.0 0.00 0.00 0.00 85 1010.3
20210728091616 77 137 0.0 0.0 0.00 0.00 0.00 85 1010.3
20210728091036 77 137 0.0 0.0 0.00 0.00 0.00 85 1010.3
20210728090208 77 132 0.0 0.0 0.00 0.00 0.00 85 1010.1
20210728085007 77 192 0.0 0.0 0.00 0.00 0.00 84 1010.1
20210728084608 77 200 0.0 0.0 0.00 0.00 0.00 84 1010.1
20210728084038 77 202 0.0 0.0 0.00 0.00 0.00 84 1010.1
20210728083533 78 171 0.0 0.0 0.00 0.00 0.00 83 1010.1
20210728083059 78 171 0.0 0.0 0.00 0.00 0.00 83 1010.1
20210728082541 78 169 0.0 0.0 0.00 0.00 0.00 83 1010.1
20210728082049 78 169 0.0 0.0 0.00 0.00 0.00 83 1010.1
20210728081636 78 165 0.0 0.0 0.00 0.00 0.00 82 1010.1
20210728081056 78 150 0.0 0.0 0.00 0.00 0.00 82 1010.1
20210728080024 78 158 0.0 0.0 0.00 0.00 0.00 83 1010.2
20210728075524 78 150 0.0 0.0 0.00 0.00 0.00 83 1010.2
20210728075019 79 129 0.0 0.0 0.00 0.00 0.00 84 1010.1
20210728074548 79 115 0.0 0.0 0.00 0.00 0.00 84 1010.1
20210728074042 79 159 0.0 0.0 0.00 0.00 0.00 84 1010.1
20210728073533 79 155 0.0 0.0 0.00 0.00 0.00 85 1010.3
20210728073128 79 166 0.0 0.0 0.00 0.00 0.00 85 1010.3
20210728072550 79 145 0.0 0.0 0.00 0.00 0.00 85 1010.3
20210728072058 79 117 0.0 0.0 0.00 0.00 0.00 85 1010.1
20210728071631 79 136 1.0 0.0 0.00 0.00 0.00 85 1010.1
20210728071115 80 143 2.0 0.0 0.00 0.00 0.00 85 1010.1
20210728070036 80 148 2.0 0.0 0.00 0.00 0.00 85 1010.1
20210728065515 80 107 0.0 0.0 0.00 0.00 0.00 86 1010.1
20210728065016 80 128 0.0 0.0 0.00 0.00 0.00 87 1010.1
20210728064626 80 127 0.0 0.0 0.00 0.00 0.00 86 1010.1
20210728064033 81 140 0.0 0.0 0.00 0.00 0.00 86 1010.1
20210728063600 81 142 0.0 0.0 0.00 0.00 0.00 86 1010.1
20210728063147 81 110 0.0 0.0 0.00 0.00 0.00 86 1010.1
20210728062550 81 130 0.0 0.0 0.00 0.00 0.00 86 1010.1
20210728062101 81 141 0.0 0.0 0.00 0.00 0.00 86 1010.2
20210728061712 81 151 0.0 0.0 0.00 0.00 0.00 86 1010.2
20210728060046 81 141 0.0 0.0 0.00 0.00 0.00 85 1010.1
20210728055605 81 142 0.0 0.0 0.00 0.00 0.00 85 1010.1
20210728055041 81 146 0.0 0.0 0.00 0.00 0.00 84 1010.1
20210728054638 81 161 0.0 0.0 0.00 0.00 0.00 84 1010.1
20210728054104 81 156 0.0 0.0 0.00 0.00 0.00 84 1010.1
20210728053553 82 148 0.0 0.0 0.00 0.00 0.00 83 1010.1
20210728053144 82 151 0.0 0.0 0.00 0.00 0.00 83 1010.1
20210728052006 82 157 0.0 0.0 0.00 0.00 0.00 83 1010.1
20210728051605 82 162 0.0 0.0 0.00 0.00 0.00 83 1010.1
20210728051028 82 167 0.0 0.0 0.00 0.00 0.00 83 1010.1
20210728050127 82 183 0.0 0.0 0.00 0.00 0.00 83 1010.2
20210728045552 82 168 0.0 0.0 0.00 0.00 0.00 83 1010.2
20210728045104 82 173 0.0 0.0 0.00 0.00 0.00 83 1010.6
20210728044719 82 176 0.0 0.0 0.00 0.00 0.00 83 1010.6
20210728043505 83 166 0.0 0.0 0.00 0.00 0.00 82 1010.6
20210728043026 83 162 0.0 0.0 0.00 0.00 0.00 82 1010.6
20210728042518 83 156 0.0 0.0 0.00 0.00 0.00 81 1010.6
20210728042032 83 148 0.0 0.0 0.00 0.00 0.00 81 1010.5
20210728041554 83 138 0.0 0.0 0.00 0.00 0.00 81 1010.5
20210728041040 83 140 0.0 0.0 0.00 0.00 0.00 80 1010.5